Total_Precipitation_Accumulation
2.68 2.55 3.79 4.00 3.34 2.56 2.36 2.33 2.15 2.01 2.01 2.06 1.88 1.75 1.63 1.60 1.47 1.36 1.19 1.09 1.05 1.05 1.12 1.11 1.17 1.29 1.29 1.20 1.10 1.34 1.43 1.39 1.37 1.35 1.51 1.70 1.86 2.06 2.26 2.46 2.72 2.97 2.74
2.19 2.18 3.49 3.75 3.18 2.51 2.18 2.13 2.09 1.99 2.06 2.04 2.02 1.85 1.76 1.61 1.47 1.35 1.15 1.11 1.11 1.08 1.05 1.10 1.19 1.20 1.21 1.24 1.23 1.39 1.42 1.30 1.25 1.37 1.72 2.00 2.00 2.07 2.16 2.19 2.55 2.84 2.61
1.70 1.80 2.65 3.36 3.03 2.52 2.16 2.00 2.04 2.03 2.15 2.12 2.12 1.92 1.77 1.63 1.56 1.40 1.23 1.29 1.26 1.13 1.05 1.04 1.18 1.25 1.24 1.38 1.37 1.38 1.33 1.29 1.30 1.55 2.17 2.90 2.53 2.20 2.16 2.15 2.36 2.31 2.32
1.55 1.63 1.98 2.76 2.64 2.21 2.00 1.99 2.11 2.14 2.27 2.20 2.07 1.87 1.72 1.69 1.61 1.46 1.36 1.43 1.27 1.17 1.07 1.06 1.19 1.33 1.27 1.36 1.35 1.30 1.25 1.33 1.53 1.66 2.15 2.77 2.91 2.42 2.31 2.37 2.33 2.25 2.34
1.50 1.60 2.15 2.74 2.47 2.15 1.96 2.13 2.35 2.37 2.34 2.17 1.94 1.74 1.71 1.73 1.67 1.59 1.57 1.52 1.26 1.17 1.08 1.07 1.17 1.21 1.19 1.23 1.21 1.25 1.29 1.51 1.78 1.69 2.00 2.50 3.05 2.85 2.35 2.31 2.34 2.36 2.52
1.52 1.61 2.05 2.63 2.45 2.22 2.03 2.25 2.38 2.43 2.48 2.38 2.09 1.82 1.74 1.71 1.67 1.60 1.62 1.46 1.30 1.18 1.07 1.04 1.11 1.17 1.16 1.20 1.21 1.24 1.36 1.57 1.62 1.72 2.05 2.47 2.87 2.85 2.41 2.27 2.37 2.60 2.61
1.38 1.41 1.66 2.34 2.43 2.27 2.17 2.38 2.45 2.50 2.67 2.63 2.33 2.12 1.90 1.72 1.66 1.62 1.64 1.48 1.37 1.28 1.21 1.16 1.18 1.20 1.17 1.22 1.19 1.15 1.16 1.19 1.21 1.48 1.75 2.38 2.57 2.57 2.49 2.35 2.30 2.41 2.52
1.46 1.37 1.37 2.02 2.28 2.27 2.31 2.36 2.35 2.37 2.44 2.49 2.26 2.06 1.86 1.70 1.63 1.70 1.72 1.53 1.43 1.30 1.24 1.24 1.30 1.35 1.31 1.29 1.25 1.18 1.12 0.93 0.90 1.12 1.47 2.06 2.48 2.49 2.43 2.51 2.55 2.50 2.61
1.59 1.53 1.42 1.56 1.87 2.22 2.27 2.14 2.15 2.13 2.15 2.28 2.12 1.97 1.77 1.66 1.57 1.62 1.66 1.55 1.48 1.43 1.38 1.36 1.47 1.47 1.34 1.31 1.27 1.19 1.11 0.90 0.91 1.10 1.17 1.85 2.42 2.48 2.30 2.36 2.61 2.81 2.83
1.78 1.64 1.46 1.40 1.49 1.58 1.80 1.95 2.10 2.16 2.15 2.23 2.04 1.82 1.67 1.57 1.45 1.52 1.49 1.47 1.55 1.58 1.63 1.62 1.64 1.58 1.50 1.38 1.26 1.14 1.04 0.85 0.93 1.02 1.34 1.80 2.39 2.57 2.39 2.21 2.23 2.34 2.43
1.56 1.46 1.50 1.51 1.53 1.58 1.52 1.59 1.90 2.04 2.08 1.97 1.88 1.76 1.58 1.32 1.18 1.28 1.33 1.57 1.66 1.75 1.81 1.83 1.79 1.72 1.55 1.34 1.22 1.04 0.86 0.82 0.97 1.10 1.55 2.07 2.52 2.70 2.47 2.15 2.03 2.01 2.09
1.30 1.25 1.32 1.35 1.47 1.52 1.37 1.59 1.89 1.73 1.64 1.41 1.42 1.29 1.32 1.25 1.17 0.98 1.17 1.57 1.72 1.72 1.70 1.76 1.81 1.60 1.30 0.97 0.92 0.85 0.75 0.73 0.80 0.97 1.56 2.29 2.62 2.71 2.42 2.22 2.15 2.09 2.14
1.10 1.06 1.02 1.08 1.13 1.26 1.42 1.66 1.96 2.02 1.83 1.61 1.37 1.28 1.32 1.23 1.11 1.00 1.01 1.18 1.31 1.33 1.19 1.21 1.23 1.10 1.00 0.92 0.90 0.78 0.75 0.72 0.80 0.96 1.65 2.32 2.62 2.73 2.55 2.38 2.39 2.43 2.41
0.90 1.00 0.83 0.74 0.88 1.05 1.17 1.30 1.58 1.65 1.58 1.46 1.26 1.17 1.28 1.30 1.18 1.13 1.11 1.15 1.17 1.15 1.17 1.15 1.19 1.16 0.97 0.88 0.88 0.92 0.88 0.83 0.90 1.13 1.66 2.18 2.59 2.88 2.78 2.66 2.68 2.67 2.79
0.92 0.96 0.87 0.75 0.73 0.81 0.86 0.97 1.12 1.28 1.36 1.38 1.34 1.16 1.17 1.30 1.26 1.22 1.16 1.21 1.09 1.01 1.08 1.14 1.17 1.19 1.08 0.94 0.90 0.92 1.00 0.93 0.94 1.08 1.38 1.84 2.41 2.88 3.07 2.98 2.77 2.65 2.71
0.87 0.96 0.92 0.81 0.79 0.81 0.77 0.77 0.77 0.92 1.09 1.21 1.25 1.16 1.18 1.28 1.29 1.34 1.27 1.21 1.15 1.06 1.09 1.26 1.22 1.24 1.22 1.15 0.99 0.99 1.02 0.96 0.95 0.99 1.13 1.49 1.87 2.31 2.83 3.18 3.01 2.75 2.53
0.84 0.90 0.95 0.91 0.92 0.92 0.87 0.83 0.69 0.73 0.84 1.01 1.15 1.15 1.22 1.20 1.14 1.21 1.23 1.17 1.15 1.16 1.18 1.23 1.27 1.34 1.26 1.16 1.12 1.08 1.06 1.02 0.93 0.96 0.93 1.08 1.21 1.59 2.09 2.56 2.88 2.89 2.72
0.85 0.91 0.99 0.99 1.03 1.04 1.04 1.01 0.92 0.94 1.03 1.10 1.26 1.25 1.21 1.25 1.21 1.20 1.23 1.22 1.25 1.29 1.28 1.31 1.38 1.37 1.32 1.32 1.28 1.24 1.11 1.08 1.02 1.00 0.93 0.93 1.01 1.05 1.32 1.65 2.05 2.44 2.67
0.80 0.84 0.90 1.00 1.06 1.09 1.13 1.22 1.31 1.33 1.32 1.33 1.40 1.34 1.23 1.24 1.29 1.41 1.44 1.44 1.40 1.42 1.41 1.36 1.39 1.32 1.32 1.34 1.26 1.29 1.24 1.19 1.13 1.00 1.02 0.99 1.00 0.95 1.03 1.05 1.23 1.49 1.88
0.73 0.78 0.85 0.92 1.11 1.23 1.29 1.31 1.46 1.51 1.55 1.61 1.65 1.49 1.37 1.41 1.54 1.72 1.80 1.69 1.65 1.64 1.62 1.57 1.62 1.51 1.40 1.44 1.34 1.32 1.28 1.19 1.21 1.18 1.15 1.09 1.13 1.06 1.00 0.90 0.90 0.87 1.13
0.61 0.66 0.75 0.81 0.97 1.08 1.14 1.29 1.51 1.68 1.84 1.94 2.00 1.87 1.72 1.69 1.85 1.99 1.91 1.99 2.00 1.86 1.86 1.92 1.96 1.92 1.74 1.61 1.67 1.56 1.31 1.13 1.20 1.17 1.16 1.21 1.21 1.29 1.27 1.11 0.98 0.92 0.93
0.39 0.44 0.54 0.66 0.73 0.87 1.05 1.30 1.52 1.82 1.90 1.96 2.05 2.08 1.98 1.92 2.07 2.11 2.18 2.26 2.29 2.29 2.22 2.12 2.23 2.37 2.12 1.89 1.99 2.27 1.90 1.56 1.21 0.99 1.11 1.18 1.22 1.44 1.47 1.26 1.05 0.99 0.99
0.32 0.34 0.43 0.55 0.71 0.95 1.20 1.51 1.79 2.08 2.20 2.25 2.19 2.22 2.23 2.24 2.29 2.33 2.38 2.43 2.44 2.29 2.28 2.39 2.52 2.86 2.68 2.31 2.10 2.37 2.21 1.91 1.63 1.19 1.09 1.17 1.24 1.38 1.47 1.50 1.37 1.29 1.19
0.30 0.37 0.49 0.69 0.91 1.19 1.54 1.90 2.17 2.43 2.56 2.40 2.36 2.37 2.33 2.25 2.27 2.39 2.38 2.36 2.32 2.25 2.31 2.38 2.43 2.85 3.07 2.78 2.43 2.02 1.81 1.77 1.88 1.63 1.22 1.16 1.24 1.24 1.33 1.42 1.38 1.44 1.42
0.44 0.53 0.71 0.99 1.30 1.58 1.83 2.03 2.27 2.40 2.41 2.37 2.34 2.34 2.25 2.20 2.17 2.19 2.18 2.27 2.27 2.29 2.35 2.51 2.64 2.91 2.94 2.94 2.76 2.54 2.30 1.98 1.65 1.75 1.71 1.42 1.34 1.24 1.31 1.42 1.47 1.56 1.60
0.63 0.79 0.99 1.17 1.48 1.67 1.82 1.93 2.08 2.23 2.28 2.27 2.28 2.31 2.30 2.26 2.15 2.06 2.00 2.07 2.20 2.33 2.37 2.45 2.61 2.86 2.98 3.06 2.99 2.71 2.60 2.43 2.16 2.06 1.83 1.68 1.63 1.39 1.35 1.38 1.41 1.53 1.69